Location: Aragoneses
(41.0275°N, 4.3847°W)
Time: 14:52:30
(UTC+00:00)

IRAS Rocket - Pass Details

Date: 11 December 2025
Orbit: 846 x 875 km, 100.1° (Epoch: 16 January)

Event Time Altitude Azimuth Distance (km) Brightness Sun altitude
Rises 19:09:42 0° 169° (S) 3,404 7.3 -25.6°
Reaches altitude 10° 19:12:04 10° 172° (S) 2,469 6.6 -26.1°
Maximum altitude 19:17:31 70° 256° (WSW) 902 4.4 -27.1°
Drops below altitude 10° 19:22:59 10° 340° (NNW) 2,476 6.8 -28.1°
Sets 19:25:22 0° 343° (NNW) 3,415 7.5 -28.6°
